CW0775 Weather Reports


time (UTC)temp
F
wind
direction
speed
knots
gust
knots
rain 1hr
in
rain 24hr
in
rain mn
in
humidity
%
barometer
mb
20260906183504 69 150 0.9 2.6 0.00 0.03 0.00 54 1022.7
20260906183005 69 136 1.7 2.6 0.00 0.03 0.00 53 1022.7
20260906180506 70 42 1.7 2.6 0.00 0.03 0.00 51 1022.7
20260906180005 70 124 0.9 2.6 0.00 0.03 0.00 50 1022.7
20260906174505 71 191 1.7 2.6 0.00 0.03 0.00 49 1023.0
20260906174004 71 128 0.9 1.7 0.00 0.03 0.00 49 1022.8
20260906173504 71 181 1.7 4.3 0.00 0.03 0.00 49 1022.8
20260906173005 72 284 0.0 6.1 0.00 0.03 0.00 47 1022.8
20260906171505 73 29 1.7 2.6 0.00 0.03 0.00 47 1023.0
20260906171005 73 357 0.9 2.6 0.00 0.03 0.00 46 1022.8
20260906170506 73 173 0.9 4.3 0.00 0.03 0.00 47 1022.9
20260906170005 73 205 1.7 6.1 0.00 0.03 0.00 47 1023.0
20260906164505 74 162 1.7 4.3 0.00 0.03 0.00 46 1023.0
20260906164004 74 82 0.9 6.1 0.00 0.03 0.00 45 1023.0
20260906163504 74 126 2.6 8.7 0.00 0.03 0.00 44 1023.0
20260906163004 74 121 2.6 7.0 0.00 0.03 0.00 46 1022.9
20260906161505 74 99 4.3 7.0 0.00 0.03 0.00 45 1022.7
20260906161005 74 133 3.5 7.0 0.00 0.03 0.00 45 1023.0
20260906160005 74 63 2.6 8.7 0.00 0.03 0.00 45 1023.0
20260906154505 75 156 0.9 11.3 0.00 0.03 0.00 45 1023.2
20260906154005 74 5 2.6 8.7 0.00 0.03 0.00 44 1023.1
20260906153504 74 131 2.6 11.3 0.00 0.03 0.00 46 1023.4
20260906153004 75 116 2.6 11.3 0.00 0.03 0.00 45 1023.4
20260906151504 75 51 2.6 7.0 0.00 0.03 0.00 46 1023.5
20260906151005 75 38 4.3 6.1 0.00 0.03 0.00 44 1023.5
20260906150505 75 2 4.3 7.0 0.00 0.03 0.00 44 1023.5
20260906150005 75 76 1.7 12.2 0.00 0.03 0.00 45 1023.7
20260906144505 75 87 2.6 7.0 0.00 0.03 0.00 45 1023.7
20260906144005 74 56 4.3 8.7 0.00 0.03 0.00 45 1023.7
20260906143504 74 18 2.6 8.7 0.00 0.03 0.00 46 1023.7
20260906143004 74 161 3.5 12.2 0.00 0.03 0.00 47 1023.8
20260906141505 74 122 5.2 11.3 0.00 0.03 0.00 47 1024.0
20260906140505 75 51 4.3 8.7 0.00 0.03 0.00 45 1024.0
20260906140004 75 108 2.6 8.7 0.00 0.03 0.00 46 1024.2
20260906134504 75 205 2.6 6.1 0.00 0.03 0.00 46 1024.4
20260906134004 74 155 3.5 8.7 0.00 0.03 0.00 47 1024.6
20260906133504 74 110 3.5 8.7 0.00 0.03 0.00 47 1024.6
20260906133004 74 35 1.7 8.7 0.00 0.03 0.00 47 1024.4
20260906131505 74 88 3.5 8.7 0.00 0.03 0.00 47 1024.4
20260906131005 74 83 3.5 8.7 0.00 0.03 0.00 47 1024.4
20260906130505 74 125 4.3 8.7 0.00 0.03 0.00 47 1024.4
20260906124505 74 71 5.2 12.2 0.00 0.03 0.00 48 1024.7
20260906123505 74 143 7.8 13.0 0.00 0.03 0.00 47 1024.9
20260906123004 74 86 5.2 8.7 0.00 0.03 0.00 47 1024.8
20260906121504 73 307 5.2 12.2 0.00 0.03 0.00 49 1025.1
20260906121004 73 171 6.1 11.3 0.00 0.03 0.00 49 1025.1
20260906120505 74 116 4.3 6.1 0.00 0.03 0.00 48 1025.2
20260906120005 72 292 2.6 12.2 0.00 0.03 0.00 48 1025.2
20260906114505 73 94 5.2 11.3 0.00 0.03 0.00 50 1025.7
20260906114004 72 78 2.6 12.2 0.00 0.03 0.00 51 1025.7
20260906113504 72 339 5.2 11.3 0.00 0.03 0.00 50 1025.7
20260906113004 71 31 6.1 8.7 0.00 0.03 0.00 50 1025.5
20260906111504 71 129 2.6 4.3 0.00 0.03 0.00 53 1025.9
20260906111003 71 168 2.6 4.3 0.00 0.03 0.00 52 1025.7
20260906110505 71 352 1.7 8.7 0.00 0.03 0.00 53 1026.1
20260906110003 71 111 5.2 11.3 0.00 0.03 0.00 53 1025.9
20260906104504 70 101 5.2 11.3 0.00 0.03 0.00 54 1026.1
20260906104004 71 9 0.9 7.0 0.00 0.03 0.00 54 1026.1
20260906103004 71 83 2.6 12.2 0.00 0.03 0.00 55 1026.1
20260906101504 70 173 0.9 11.3 0.00 0.03 0.00 57 1026.4
20260906101003 69 165 6.1 11.3 0.00 0.03 0.00 57 1026.7
20260906100504 70 97 1.7 7.0 0.00 0.03 0.00 55 1026.8
20260906100004 70 104 1.7 7.0 0.00 0.03 0.00 57 1026.6
20260906094505 69 344 2.6 6.1 0.00 0.03 0.00 59 1026.8
20260906094005 67 167 1.7 11.3 0.00 0.03 0.00 61 1026.8
20260906093503 69 160 6.1 11.3 0.00 0.03 0.00 61 1026.8
20260906093005 68 127 1.7 11.3 0.00 0.03 0.00 60 1026.8
20260906091506 67 95 2.6 6.1 0.00 0.03 0.00 62 1026.8
20260906090005 66 99 5.2 11.3 0.00 0.03 0.00 64 1026.8
20260906084506 65 112 2.6 6.1 0.00 0.03 0.00 65 1026.9
20260906084005 65 154 5.2 6.1 0.00 0.03 0.00 66 1027.1
20260906083506 66 297 1.7 4.3 0.00 0.03 0.00 63 1027.1
20260906083006 65 218 1.7 4.3 0.00 0.03 0.00 67 1027.1
20260906081005 64 95 0.9 2.6 0.00 0.03 0.00 70 1026.9
20260906080506 63 120 1.7 4.3 0.00 0.03 0.00 72 1027.0
20260906080006 62 80 1.7 4.3 0.00 0.03 0.00 73 1026.8
20260906074506 62 109 1.7 2.6 0.00 0.03 0.00 75 1027.1
20260906074005 61 113 1.7 2.6 0.00 0.03 0.00 76 1026.9
20260906073006 61 318 0.0 1.7 0.00 0.03 0.00 76 1026.8
20260906071505 59 218 0.0 1.7 0.00 0.03 0.00 80 1026.9
20260906071006 58 147 0.9 2.6 0.00 0.03 0.00 81 1026.8
20260906070506 59 205 0.9 1.7 0.00 0.03 0.00 80 1027.1
20260906064005 53 271 0.0 2.6 0.00 0.03 0.00 89 1027.1
20260906063005 52 276 0.9 2.6 0.00 0.03 0.00 89 1026.9
20260906061005 52 275 0.9 2.6 0.00 0.03 0.00 91 1026.9
20260906060506 51 271 0.0 0.0 0.00 0.03 0.00 93 1026.8
20260906060005 51 270 0.0 0.0 0.00 0.03 0.00 94 1027.0
20260906054506 49 270 0.0 0.0 0.00 0.03 0.00 96 1026.8
20260906053506 48 270 0.0 0.0 0.00 0.03 0.00 96 1026.9
20260906053005 48 270 0.0 0.0 0.00 0.03 0.00 96 1027.1
20260906051505 47 271 0.0 0.0 0.00 0.03 0.00 96 1027.1
20260906051005 47 271 0.0 0.0 0.00 0.03 0.00 96 1027.1
20260906050005 46 263 0.0 0.0 0.00 0.03 0.00 96 1026.9
20260906044505 47 270 0.0 0.0 0.00 0.03 0.00 96 1027.1
20260906044006 47 269 0.0 0.0 0.00 0.03 0.00 96 1027.1
20260906043505 47 247 0.0 0.0 0.00 0.03 0.00 96 1027.0
20260906043006 47 253 0.0 0.0 0.00 0.03 0.00 96 1027.1
20260906041505 46 277 0.0 0.0 0.00 0.03 0.00 96 1026.8
20260906041006 47 278 0.0 0.0 0.00 0.03 0.00 95 1027.1
20260906040506 47 256 0.0 0.0 0.00 0.03 0.00 95 1027.1
20260906034506 47 245 0.0 0.0 0.00 0.03 0.00 95 1027.1
20260906033505 47 271 0.0 0.0 0.00 0.03 0.00 95 1027.0
20260906031505 48 269 0.0 0.0 0.00 0.03 0.00 94 1026.9
20260906031005 48 273 0.0 0.0 0.00 0.04 0.00 94 1027.1
20260906030505 48 277 0.9 1.7 0.00 0.04 0.00 94 1027.0
20260906030005 48 230 0.0 0.0 0.00 0.04 0.00 94 1026.8
20260906024507 48 269 0.0 0.0 0.00 0.04 0.00 93 1027.1
20260906024006 48 260 0.0 0.0 0.00 0.04 0.00 94 1027.1
20260906023505 48 272 0.0 0.0 0.00 0.04 0.00 93 1027.1
20260906023006 49 243 0.0 0.0 0.00 0.04 0.00 93 1027.1
20260906021505 48 268 0.0 0.0 0.00 0.04 0.00 93 1026.8
20260906021005 48 269 0.0 0.0 0.00 0.04 0.00 93 1027.1
20260906020505 49 272 0.9 2.6 0.00 0.04 0.00 93 1026.8
20260906014505 49 268 0.0 0.0 0.00 0.04 0.00 92 1027.1
20260906013505 49 268 0.0 0.0 0.00 0.04 0.00 92 1026.8
20260906013005 49 269 0.0 2.6 0.00 0.04 0.00 92 1026.8
20260906011505 50 235 0.9 1.7 0.00 0.05 0.00 91 1026.6
20260906011005 50 267 0.0 0.0 0.00 0.05 0.00 91 1026.5
20260906010505 50 269 0.0 1.7 0.00 0.05 0.00 90 1026.6
20260906010005 51 285 0.0 1.7 0.00 0.05 0.00 90 1026.6
20260906004505 50 269 0.0 2.6 0.00 0.05 0.00 90 1026.5
20260906004005 50 271 2.6 2.6 0.00 0.05 0.00 90 1026.8
20260906001504 51 267 0.0 0.0 0.00 0.05 0.00 89 1026.5
20260906001005 51 262 0.0 1.7 0.00 0.05 0.00 89 1026.5
20260906000506 51 270 0.9 1.7 0.00 0.05 0.00 88 1026.8
20260906000005 51 269 0.0 1.7 0.00 0.05 0.00 88 1026.8
20260905234506 52 269 0.9 1.7 0.00 0.05 0.00 88 1026.4
20260905234005 52 272 0.0 2.6 0.00 0.05 0.00 88 1026.4
20260905233006 52 259 0.0 1.7 0.00 0.05 0.00 88 1026.2
20260905231504 52 266 0.9 2.6 0.00 0.05 0.00 87 1026.2
20260905231015 53 291 1.7 2.6 0.00 0.05 0.00 86 1026.4
20260905230005 54 270 0.0 2.6 0.00 0.05 0.00 85 1026.1
20260905224506 54 252 0.0 0.0 0.03 0.06 0.00 84 1026.1
20260905224005 55 252 0.0 0.0 0.03 0.06 0.00 83 1026.1
20260905223005 55 272 0.0 2.6 0.03 0.06 0.00 82 1026.1
20260905221504 56 271 1.7 2.6 0.03 0.06 0.00 80 1025.9
20260905221005 57 282 0.9 4.3 0.03 0.06 0.00 78 1025.7
20260905220505 56 284 2.6 4.3 0.03 0.06 0.00 80 1025.7
20260905214506 54 270 0.0 2.6 0.00 0.03 0.03 84 1025.7
20260905213505 55 269 0.9 2.6 0.00 0.03 0.03 82 1025.7
20260905213005 55 270 0.9 1.7 0.00 0.03 0.03 81 1025.6
20260905211504 56 240 0.0 0.0 0.00 0.03 0.03 80 1025.4
20260905211004 56 248 0.0 0.0 0.00 0.03 0.03 80 1025.4
20260905210505 56 267 0.0 0.0 0.00 0.03 0.03 80 1025.4
20260905210004 56 271 0.9 1.7 0.00 0.03 0.03 79 1025.2
20260905204505 57 272 1.7 1.7 0.00 0.03 0.03 76 1025.1
20260905204005 58 269 0.0 1.7 0.00 0.03 0.03 75 1025.1
20260905203504 58 279 1.7 4.3 0.00 0.03 0.03 74 1025.1
20260905203004 58 274 2.6 4.3 0.00 0.03 0.03 74 1025.1
20260905201504 58 273 2.6 2.6 0.00 0.03 0.03 74 1025.1
20260905201004 59 275 1.7 2.6 0.00 0.03 0.03 74 1025.0
20260905200505 59 273 1.7 2.6 0.00 0.03 0.03 73 1025.1
20260905200004 59 272 1.7 2.6 0.00 0.03 0.03 73 1024.9
20260905194505 59 274 2.6 2.6 0.00 0.03 0.03 72 1024.8
20260905194005 59 271 1.7 2.6 0.00 0.03 0.03 72 1025.1
20260905193504 59 272 1.7 2.6 0.00 0.03 0.03 72 1025.1
20260905193005 59 269 1.7 2.6 0.00 0.03 0.03 72 1024.7
20260905191505 60 280 1.7 2.6 0.00 0.03 0.03 71 1024.5
20260905191005 60 271 0.9 1.7 0.00 0.03 0.03 70 1024.5
20260905190505 61 275 0.0 0.0 0.00 0.03 0.03 68 1024.7
20260905190005 62 275 0.0 1.7 0.00 0.03 0.03 66 1024.5
20260905184505 64 268 1.7 2.6 0.00 0.03 0.03 61 1024.4